Temperature
16 18 19 19 19 19 18 18 19 19 18 16 18 18 18 17 16 16 16 15 14 13 13 15 15 16 16 16 16 16 15 15 14 13 12 12 11 11 11 10 10 10 9 9
17 18 19 18 16 16 17 17 18 18 16 16 17 18 18 16 16 16 15 15 14 13 13 14 15 15 15 15 15 15 14 14 13 13 12 12 11 11 11 10 10 10 10 9
18 18 16 16 16 16 17 17 18 18 17 16 16 18 17 16 15 14 14 14 13 13 13 13 14 14 14 14 14 14 14 13 13 12 12 12 11 11 11 10 10 10 10 9
18 17 15 16 16 17 17 17 17 16 17 19 17 19 18 17 16 16 14 14 13 12 12 13 14 14 14 14 13 13 13 13 12 12 12 11 11 11 10 10 10 10 10 9
17 15 15 16 17 16 17 15 15 16 17 17 17 18 20 17 17 17 16 14 13 12 12 12 13 13 13 13 13 12 12 12 12 11 11 11 10 10 10 10 9 9 9 9
17 16 16 17 15 15 14 15 14 15 16 17 18 18 19 18 18 18 16 14 13 12 11 12 12 12 12 12 12 12 12 11 11 11 11 10 10 9 9 9 8 8 8 8
16 16 15 15 15 14 15 17 18 18 18 18 16 16 19 18 18 18 17 15 13 12 11 11 12 12 12 12 11 11 11 11 11 10 10 9 9 8 8 8 8 7 7 7
16 17 16 15 17 17 16 17 18 18 19 18 15 17 19 16 15 15 15 15 13 12 11 11 11 11 11 11 11 11 11 10 10 10 9 9 8 8 7 7 7 7 6 6
17 17 14 14 15 17 16 16 17 18 16 17 18 18 18 15 14 14 14 14 13 12 11 11 11 11 11 11 10 10 10 10 9 9 8 8 7 7 6 6 6 6 6 6
18 17 15 13 14 13 15 16 16 17 17 17 18 18 19 17 16 15 14 13 13 12 11 10 10 10 10 10 10 10 9 9 8 8 7 7 6 6 6 6 5 5 5 5
17 17 14 14 15 16 14 15 16 17 17 17 18 19 18 17 17 16 15 14 13 12 11 10 10 10 10 10 9 9 9 8 8 7 6 6 6 5 5 5 5 5 5 4
16 17 16 15 14 14 16 16 16 17 16 16 17 18 16 16 15 15 14 13 12 11 10 10 9 9 9 9 9 8 8 7 7 6 6 6 5 5 5 4 4 4 4 4
15 16 16 15 14 13 14 14 15 16 16 16 16 18 15 14 14 13 13 11 10 10 9 9 9 9 8 8 8 8 7 7 6 6 5 5 5 4 4 4 4 4 3 3
15 16 17 18 18 16 14 13 13 15 16 16 16 18 16 15 14 13 12 11 10 9 9 8 8 8 8 8 7 7 6 6 5 5 5 4 4 4 4 3 3 3 3 3
14 16 16 16 14 15 15 15 13 14 16 16 17 17 17 16 15 13 11 10 9 8 8 8 8 8 7 7 7 6 5 5 5 4 4 4 4 3 3 3 3 3 3 2
14 15 14 14 12 13 13 14 14 14 15 15 16 16 16 14 12 11 10 9 8 8 7 8 7 7 7 6 6 5 5 4 4 4 4 3 3 3 3 2 2 2 2 1
13 14 14 15 12 12 13 15 14 14 14 14 15 16 13 11 11 10 9 8 8 7 7 7 7 6 6 5 5 4 4 4 4 4 3 3 2 2 2 2 1 1 0 0
13 14 14 13 12 12 16 13 13 14 14 13 13 12 11 11 9 8 8 8 7 7 7 6 6 5 5 5 4 4 4 3 3 3 3 2 2 1 1 1 0 -0 -1 -1
12 13 13 12 13 14 14 12 11 12 13 12 11 11 9 8 8 8 7 7 7 6 6 6 5 5 4 4 4 3 3 3 2 2 2 1 1 0 0 -0 -1 -1 -1 -2
9 11 13 11 11 12 15 11 10 12 12 11 10 10 8 8 10 10 6 6 6 6 5 5 5 4 4 3 3 3 2 2 2 1 1 1 0 -0 -1 -1 -1 -2 -2 -3
9 10 11 11 11 13 13 9 10 12 13 9 9 8 8 9 9 7 6 6 5 5 5 4 4 4 3 3 3 2 2 1 1 1 0 0 -0 -1 -1 -1 -2 -2 -3 -3
10 10 11 11 11 12 10 9 11 12 8 8 8 8 7 7 7 6 6 5 5 4 4 4 4 3 3 3 2 2 1 1 1 0 -0 -0 -1 -1 -2 -2 -2 -3 -4 -4
11 12 12 11 12 10 8 9 9 8 8 7 7 7 7 6 6 5 5 4 4 4 3 3 3 3 3 2 1 1 1 0 0 -0 -0 -1 -1 -2 -2 -3 -3 -4 -5 -5
9 8 9 9 9 8 7 7 8 8 7 8 7 7 6 6 5 4 4 4 4 3 3 3 2 2 2 2 1 1 1 0 -0 -1 -1 -2 -2 -2 -3 -4 -4 -5 -6 -6
10 8 8 9 8 7 6 6 7 7 7 7 6 6 5 5 4 4 4 3 3 3 3 2 2 2 1 1 1 1 0 -0 -1 -1 -2 -2 -3 -3 -4 -4 -5 -6 -6 -7
7 8 9 10 9 8 7 6 6 6 6 6 5 5 4 4 4 3 3 3 3 2 2 2 1 1 1 1 1 0 -0 -1 -2 -2 -2 -3 -4 -4 -5 -5 -6 -6 -6 -6
Wind_Speed
3 6 9 9 10 7 5 7 9 8 3 4 9 10 7 3 4 7 9 9 10 10 10 10 12 12 13 12 11 8 6 5 4 4 4 4 5 6 7 10 13 14 15 15
5 11 10 4 5 6 8 9 10 7 2 4 7 9 4 2 5 8 10 10 10 11 11 11 13 13 14 13 11 10 8 6 4 3 2 2 3 4 5 7 10 12 14 15
13 3 4 6 6 8 10 11 9 6 3 3 5 4 4 5 7 7 8 9 9 10 11 11 12 13 13 12 11 9 8 6 4 3 2 1 2 3 3 5 6 8 11 13
9 5 5 7 8 9 9 7 8 6 5 4 3 4 6 9 10 9 9 9 9 9 10 10 11 12 11 10 9 9 8 7 5 3 1 1 2 3 3 4 5 6 8 10
8 6 7 9 8 9 4 3 4 4 5 6 5 6 5 11 15 15 13 11 9 9 9 10 10 10 9 8 8 8 8 8 5 3 1 1 3 4 4 5 6 6 6 7
7 4 5 4 2 5 6 5 3 2 4 6 5 7 5 11 17 19 16 13 11 10 9 9 9 8 8 7 7 7 7 7 5 4 2 2 3 5 6 6 6 6 5 5
9 8 6 5 5 5 6 5 4 5 5 4 3 5 6 6 9 15 17 15 13 11 10 10 9 8 7 7 6 6 6 6 5 4 3 3 3 5 6 6 6 7 6 6
9 8 10 9 11 9 9 7 6 4 3 1 4 6 2 3 4 7 12 14 13 12 10 9 8 7 6 6 5 5 5 5 4 4 3 3 3 4 4 6 6 7 7 7
9 5 3 4 2 7 7 7 3 2 1 4 5 4 4 4 5 8 12 14 14 13 11 10 8 6 5 5 4 3 3 3 3 4 4 4 4 4 5 6 7 6 7 8
8 5 4 4 4 2 2 5 5 5 4 5 5 5 4 7 8 9 13 15 14 12 11 9 8 6 4 3 2 2 2 2 3 4 4 4 5 5 6 7 8 9 10 10
8 7 5 5 9 9 7 5 5 4 3 4 5 4 2 5 7 10 12 13 13 12 10 9 7 5 4 3 2 1 2 2 3 4 5 5 6 6 8 8 9 10 11 12
9 6 5 5 1 2 7 8 9 6 6 5 5 5 3 4 5 8 10 10 9 8 8 7 6 5 4 2 1 1 2 3 4 5 6 7 7 8 9 10 11 12 13 13
10 8 6 4 4 4 5 6 8 5 4 7 7 7 4 4 6 7 9 9 8 7 7 7 6 4 2 1 1 2 3 4 5 6 7 8 9 10 11 12 13 13 14 15
7 7 9 8 3 8 7 8 10 11 8 10 13 15 7 7 8 9 9 8 7 7 7 6 5 3 1 0 2 3 4 4 5 6 8 9 10 11 12 13 14 14 15 16
6 7 7 4 1 5 8 10 14 16 16 15 16 18 16 11 10 9 9 8 8 8 7 5 3 2 0 1 2 4 5 5 6 8 9 10 11 12 13 14 15 15 16 16
6 5 5 4 3 5 7 12 15 17 18 20 22 20 10 5 6 8 10 10 9 8 6 4 2 1 1 2 3 5 6 6 7 9 10 11 12 13 13 15 16 16 17 17
8 8 6 6 3 3 10 14 18 13 14 14 18 14 5 6 8 9 10 10 9 7 5 3 2 1 2 3 4 6 7 8 9 10 12 12 12 13 15 16 17 17 18 18
8 7 5 4 4 10 7 1 7 13 15 15 12 5 7 7 7 6 8 9 8 6 4 2 1 1 2 4 5 7 8 9 10 12 12 13 13 14 15 16 17 18 17 18
5 7 6 5 8 11 7 5 7 9 9 10 12 9 8 9 8 5 5 5 5 4 2 1 1 2 4 5 6 8 9 10 11 13 13 14 14 15 16 17 18 18 18 18
2 5 7 6 6 9 5 4 5 3 7 6 9 11 12 12 8 7 8 6 5 3 2 1 2 4 5 6 7 9 11 12 13 14 14 15 15 16 17 18 19 18 17 18
6 6 11 11 11 10 2 6 8 7 4 7 10 12 13 9 3 7 8 5 4 2 2 2 4 5 6 7 8 10 12 13 14 14 15 16 16 17 18 18 17 18 17 18
10 10 10 9 10 10 7 9 9 3 4 8 10 10 9 6 7 6 5 4 3 2 3 3 5 6 7 8 9 12 14 14 14 15 16 17 17 16 15 17 18 17 18 18
9 8 7 10 7 1 7 5 1 4 7 7 8 7 8 7 6 5 4 3 3 3 4 4 6 8 9 9 10 13 15 15 15 16 17 17 17 16 16 17 17 17 15 14
7 3 5 6 6 4 4 4 4 5 6 7 7 7 7 6 6 5 4 3 3 4 5 6 8 10 12 12 12 14 15 14 15 17 17 16 17 17 16 14 14 14 14 15
6 8 6 7 3 3 5 6 7 7 8 9 7 6 6 6 5 4 4 4 4 5 6 7 9 11 13 14 14 15 15 15 16 17 16 16 15 16 16 15 14 15 15 16
6 8 8 6 6 6 6 8 9 9 8 8 7 6 5 5 4 4 4 4 5 7 8 9 11 13 14 15 16 16 15 15 15 15 16 14 14 14 14 15 16 16 18 24
Wind_Direction
166 219 239 245 238 263 261 257 267 273 280 272 267 275 287 291 188 161 140 122 103 87 75 67 67 70 73 74 79 87 104 127 151 166 190 215 234 240 243 245 248 248 248 247
206 243 256 250 210 220 233 252 265 272 225 260 282 281 279 169 161 151 142 130 118 108 92 79 75 72 72 73 74 79 88 105 133 155 177 222 254 261 262 257 254 253 251 250
234 249 149 168 186 210 230 241 256 268 276 222 285 242 167 146 143 139 140 134 126 115 105 94 84 79 75 70 69 74 79 90 106 138 161 186 238 259 259 262 263 262 258 255
240 221 184 213 224 223 247 239 240 245 264 259 271 260 181 169 168 166 158 151 136 125 114 105 97 87 79 75 76 78 80 82 89 116 157 227 277 295 305 305 293 287 274 265
222 193 195 219 231 209 224 111 179 223 248 268 229 245 197 178 187 183 175 164 151 139 128 117 106 99 91 85 83 83 84 79 79 83 78 299 301 308 312 311 304 303 292 278
241 194 212 211 124 173 143 129 123 182 225 247 216 226 219 192 200 187 181 176 167 156 145 131 122 114 103 96 90 87 86 79 72 69 55 358 330 322 319 321 319 316 308 297
230 225 207 171 149 156 185 213 233 222 217 231 156 234 250 181 196 193 186 182 175 168 161 152 144 133 118 104 93 88 83 73 60 51 33 6 336 323 319 321 319 316 312 308
218 222 195 195 211 198 199 221 241 261 254 244 197 240 241 137 179 200 194 184 177 176 172 163 155 144 130 115 99 85 73 60 43 27 12 359 345 328 323 320 314 310 307 306
216 211 120 177 198 193 178 208 250 266 279 269 245 256 264 175 197 196 192 187 183 181 177 172 164 155 141 126 105 80 62 47 29 10 353 344 340 329 321 315 309 305 302 302
213 198 154 142 136 52 248 161 167 210 241 253 253 247 232 192 194 186 187 187 184 180 179 176 171 163 151 136 115 79 48 26 6 351 343 328 324 321 314 309 308 306 305 302
203 202 162 180 206 195 165 182 202 201 246 254 267 251 183 198 185 181 181 182 181 180 179 177 173 166 157 144 122 65 26 4 349 338 327 319 319 316 311 307 306 306 304 303
192 207 197 187 103 288 217 208 194 216 223 228 264 270 118 198 189 182 175 173 174 174 173 172 169 164 158 142 89 22 2 348 337 326 317 315 314 311 308 308 308 306 304 302
164 189 180 175 187 187 211 208 212 224 235 225 241 255 122 175 181 180 174 167 164 163 162 162 162 160 150 124 10 352 345 336 328 320 313 312 311 311 310 309 308 306 303 301
174 198 220 229 193 172 192 199 198 203 228 238 239 255 229 205 197 187 182 175 168 161 158 157 156 149 132 21 342 334 330 326 321 314 310 309 311 310 309 307 305 303 302 300
195 221 227 250 149 180 207 205 200 213 234 248 258 260 259 241 223 207 191 176 168 161 157 153 149 140 107 334 326 325 320 317 313 309 307 308 309 308 305 304 303 302 300 298
196 212 194 218 199 220 242 237 225 229 241 249 261 267 271 243 203 193 184 173 169 164 159 151 149 163 294 316 317 314 311 311 308 305 305 308 306 305 304 303 303 302 301 299
181 178 195 235 171 228 253 241 229 226 226 236 249 261 199 186 187 183 173 168 167 164 162 165 185 232 296 311 309 308 309 307 305 303 304 304 304 303 303 304 302 302 302 300
176 181 210 208 182 238 255 140 226 233 242 235 243 227 183 177 152 151 161 165 163 160 166 179 212 266 293 298 301 302 302 302 301 301 302 304 304 302 303 303 302 302 302 301
201 180 184 194 237 262 261 214 194 212 249 224 220 199 161 139 137 152 156 158 154 156 163 187 251 280 288 293 299 300 298 300 300 301 304 306 304 302 302 302 303 304 303 300
147 201 201 194 223 246 246 146 161 185 258 197 188 173 160 160 184 179 158 152 150 152 168 226 269 280 284 294 299 296 298 300 301 305 305 304 303 301 301 301 302 302 301 299
166 189 213 221 236 257 221 142 160 211 279 152 170 164 164 176 153 127 143 150 154 166 209 259 276 281 288 296 297 295 299 300 304 304 302 301 300 300 300 300 300 301 300 299
179 184 201 207 225 244 152 160 197 232 115 153 158 159 161 146 123 132 147 156 171 205 242 267 280 288 294 296 296 295 298 302 304 302 300 299 300 300 299 299 300 300 301 301
208 202 195 201 217 62 165 195 189 144 154 155 155 153 150 150 158 159 168 181 205 239 260 273 284 292 296 296 294 294 300 305 304 302 301 301 301 300 299 299 300 301 301 299
211 187 191 220 234 212 209 200 175 166 152 140 140 143 150 157 162 172 186 206 235 255 270 280 286 291 297 301 300 297 300 302 301 300 301 301 301 301 300 298 296 297 298 298
182 173 198 227 218 196 209 195 166 140 129 125 124 133 147 155 170 187 206 230 253 268 277 280 283 289 294 300 301 301 302 303 300 300 300 300 300 299 300 299 296 295 291 289
181 183 191 217 193 191 185 169 160 148 145 143 139 140 149 168 182 203 231 251 266 275 281 283 285 290 295 299 299 301 302 301 299 299 300 300 301 300 299 300 299 289 286 291
Height
1541 1541 1537 1535 1537 1537 1538 1537 1536 1533 1535 1537 1531 1527 1526 1528 1529 1529 1530 1531 1531 1531 1529 1528 1527 1527 1526 1526 1526 1526 1527 1527 1528 1528 1529 1529 1530 1530 1531 1531 1531 1531 1531 1531
1539 1536 1533 1536 1539 1540 1539 1538 1534 1532 1536 1535 1530 1526 1525 1527 1527 1528 1530 1531 1532 1532 1531 1530 1529 1529 1529 1528 1528 1528 1528 1529 1529 1529 1529 1529 1529 1529 1529 1528 1528 1528 1527 1527
1532 1532 1535 1537 1538 1539 1537 1535 1531 1532 1532 1534 1533 1522 1524 1526 1528 1530 1531 1532 1532 1532 1532 1531 1531 1531 1531 1530 1530 1530 1530 1530 1530 1530 1529 1529 1529 1528 1528 1527 1526 1525 1524 1523
1530 1531 1535 1534 1533 1533 1532 1530 1532 1534 1532 1525 1530 1521 1519 1522 1526 1528 1530 1531 1532 1532 1532 1532 1532 1532 1532 1532 1532 1532 1532 1531 1531 1530 1530 1529 1528 1528 1527 1525 1524 1523 1521 1520
1525 1530 1531 1530 1528 1530 1528 1532 1533 1533 1531 1528 1527 1523 1511 1520 1522 1524 1528 1530 1531 1532 1532 1532 1532 1532 1533 1533 1533 1533 1532 1532 1531 1530 1530 1529 1527 1526 1525 1523 1521 1520 1518 1516
1523 1526 1526 1525 1528 1530 1532 1533 1536 1534 1530 1527 1520 1521 1509 1512 1512 1517 1524 1528 1530 1531 1531 1532 1532 1533 1533 1533 1533 1533 1532 1532 1531 1530 1529 1527 1526 1524 1522 1520 1518 1516 1514 1512
1523 1522 1523 1524 1526 1531 1530 1527 1527 1525 1523 1517 1523 1523 1507 1505 1509 1513 1519 1524 1527 1529 1530 1531 1532 1532 1533 1533 1533 1532 1532 1531 1530 1528 1527 1525 1523 1521 1519 1517 1515 1513 1511 1508
1518 1515 1517 1519 1518 1520 1523 1522 1522 1521 1516 1514 1524 1517 1503 1508 1512 1514 1517 1521 1525 1527 1529 1530 1530 1531 1531 1532 1532 1531 1530 1529 1528 1526 1524 1522 1520 1518 1516 1514 1512 1509 1507 1504
1510 1512 1517 1518 1519 1517 1521 1519 1518 1518 1523 1520 1509 1507 1503 1508 1510 1513 1515 1518 1521 1524 1526 1527 1529 1529 1530 1530 1530 1529 1528 1527 1526 1524 1522 1520 1517 1515 1513 1511 1508 1505 1503 1500
1503 1509 1515 1518 1519 1521 1518 1516 1521 1518 1520 1517 1508 1506 1499 1501 1504 1508 1511 1514 1518 1521 1524 1525 1526 1527 1527 1528 1527 1527 1526 1524 1523 1521 1518 1516 1514 1512 1509 1507 1504 1501 1498 1495
1502 1505 1515 1517 1515 1512 1519 1520 1515 1513 1514 1514 1510 1501 1495 1497 1500 1503 1507 1511 1515 1518 1521 1522 1524 1525 1525 1525 1525 1524 1523 1521 1519 1517 1515 1513 1510 1508 1505 1502 1499 1496 1492 1488
1501 1501 1505 1510 1514 1513 1510 1509 1510 1512 1513 1514 1509 1502 1497 1498 1500 1503 1506 1510 1513 1516 1518 1519 1521 1522 1522 1522 1522 1521 1519 1518 1516 1513 1511 1508 1506 1503 1500 1497 1494 1490 1486 1481
1499 1500 1505 1509 1514 1515 1512 1511 1510 1508 1508 1509 1509 1499 1498 1499 1501 1503 1506 1509 1511 1513 1515 1516 1518 1519 1519 1519 1519 1517 1516 1514 1512 1509 1507 1504 1501 1498 1495 1491 1487 1483 1478 1473
1495 1494 1493 1494 1492 1498 1505 1508 1510 1508 1505 1502 1500 1491 1494 1497 1499 1502 1504 1507 1509 1511 1512 1514 1515 1516 1516 1516 1515 1514 1512 1510 1508 1505 1502 1499 1496 1493 1489 1485 1480 1475 1470 1465
1493 1491 1490 1492 1496 1497 1496 1499 1505 1503 1495 1494 1486 1486 1486 1490 1495 1498 1502 1504 1507 1508 1510 1511 1512 1513 1513 1513 1511 1510 1508 1506 1503 1500 1497 1494 1490 1486 1482 1477 1473 1467 1462 1456
1491 1491 1493 1496 1499 1500 1499 1495 1496 1497 1492 1489 1485 1483 1484 1489 1493 1496 1499 1501 1504 1506 1508 1509 1510 1510 1510 1509 1508 1506 1504 1502 1499 1496 1492 1488 1484 1480 1475 1470 1465 1459 1453 1448
1489 1490 1492 1491 1500 1500 1493 1484 1486 1487 1485 1484 1482 1479 1484 1489 1491 1493 1496 1499 1502 1504 1506 1507 1507 1507 1506 1505 1504 1502 1500 1497 1494 1491 1487 1482 1478 1473 1468 1462 1457 1451 1445 1439
1486 1487 1488 1491 1499 1499 1474 1479 1479 1479 1478 1479 1480 1482 1484 1487 1490 1493 1495 1498 1500 1502 1503 1504 1504 1503 1502 1501 1500 1498 1495 1492 1489 1485 1480 1476 1471 1465 1460 1454 1449 1443 1437 1430
1485 1485 1487 1492 1488 1479 1475 1477 1479 1479 1474 1476 1477 1480 1485 1488 1490 1493 1495 1496 1498 1500 1501 1501 1501 1500 1499 1497 1495 1493 1490 1487 1483 1479 1474 1469 1464 1458 1452 1447 1441 1435 1428 1421
1488 1485 1485 1491 1490 1483 1468 1474 1476 1478 1473 1473 1475 1478 1483 1486 1487 1490 1493 1494 1496 1497 1498 1497 1497 1496 1495 1493 1491 1488 1485 1481 1477 1472 1468 1463 1457 1451 1445 1439 1433 1426 1420 1413
1486 1485 1483 1482 1481 1469 1468 1474 1476 1477 1467 1472 1474 1477 1481 1484 1485 1489 1490 1492 1494 1494 1495 1494 1494 1492 1491 1489 1486 1482 1479 1475 1471 1466 1460 1455 1450 1444 1438 1431 1425 1418 1411 1404
1471 1475 1476 1476 1477 1472 1470 1472 1471 1467 1470 1471 1474 1477 1480 1483 1485 1487 1489 1490 1491 1491 1491 1491 1490 1488 1486 1484 1481 1477 1473 1469 1464 1459 1453 1448 1442 1436 1430 1423 1417 1410 1404 1396
1464 1461 1461 1464 1463 1464 1466 1467 1467 1468 1469 1471 1473 1477 1479 1481 1483 1485 1487 1487 1488 1488 1488 1487 1486 1484 1482 1479 1475 1471 1466 1462 1456 1451 1446 1440 1434 1428 1422 1416 1409 1402 1396 1390
1461 1463 1462 1463 1461 1464 1465 1465 1466 1467 1468 1470 1473 1476 1478 1480 1482 1483 1484 1485 1485 1485 1484 1483 1481 1478 1476 1473 1469 1465 1459 1454 1449 1443 1438 1432 1426 1420 1414 1408 1401 1395 1389 1383
1452 1459 1459 1459 1460 1462 1462 1463 1464 1466 1468 1470 1473 1475 1477 1478 1480 1481 1481 1482 1482 1481 1480 1478 1476 1473 1469 1466 1462 1458 1453 1447 1441 1436 1430 1424 1418 1412 1405 1400 1394 1388 1382 1377
1452 1453 1454 1452 1454 1457 1458 1460 1462 1465 1467 1469 1471 1473 1475 1476 1477 1478 1478 1478 1478 1477 1475 1473 1470 1467 1463 1459 1455 1450 1446 1440 1434 1428 1422 1416 1410 1404 1397 1391 1384 1379 1374 1369